Home > Weather > Gatineau > Past weeks

Flag for Canada Weather for the Past 2 Weeks in Gatineau, Quebec, Canada

Now
19 °F

Overcast.


Feels Like: 6 °F
Forecast: 17 / 24 °F
Wind: 14 mph from East

Location: Ottawa Int'L. Ont.

Current Time: Feb 8, 2016 at 10:14:38 AM

Latest Report: Feb 8, 2016 at 9:00 AM


Visibility: 15 mi

Pressure: 29.97 "Hg

Humidity: 49%

Dew point: 3 °F

Location of GatineauLocation

Historic Weather in Gatineau — Graph

°F

Gatineau Temperature Yesterday

Maximum temperature yesterday: 32 °F (at 12:00 AM)
Minimum temperature yesterday: 16 °F (at 8:00 PM)
Average temperature yesterday: 24 °F

High & Low Weather Summary for the Past Weeks

 TemperatureHumidityPressure
High46 °F (Feb 3, 9:00 PM)100% (Jan 29, 7:00 AM)30.43 "Hg (Jan 29, 7:00 AM)
Low1 °F (Jan 24, 8:00 AM)47% (Feb 2, 3:00 PM)29.38 "Hg (Feb 1, 3:00 AM)
Average27 °F76%29.94 "Hg
* Reported Jan 24 8:00 AM — Feb 8 8:00 AM, Gatineau, Weather by CustomWeather, © 2016

Note: Actual official high and low records may vary slightly from our data, if they occured in-between our weather recording intervals... More about our weather records

Advertising

Gatineau Weather History for the Previous 24 Hours

 ConditionsComfort  
Time TempWeatherWind HumidityBarometerVisibility
8:00 AM
Mon, Feb 8
18 °FOvercast.21 mph53%29.96 "Hg15 mi
7:00 AM18 °FOvercast.15 mph53%29.96 "Hg15 mi
6:00 AM18 °FOvercast.16 mph53%29.96 "Hg15 mi
5:00 AM18 °FMostly cloudy.13 mph53%29.97 "Hg15 mi
4:00 AM18 °FPassing clouds.13 mph58%29.98 "Hg15 mi
3:00 AM18 °FOvercast.14 mph53%30.00 "Hg15 mi
2:00 AM16 °FOvercast.10 mph57%30.02 "Hg15 mi
1:00 AM16 °FMostly cloudy.12 mph53%30.04 "Hg15 mi
12:00 AM16 °FPartly cloudy.15 mph53%30.06 "Hg15 mi
11:00 PM
Sun, Feb 7
16 °FPassing clouds.14 mph48%30.09 "Hg15 mi
10:00 PM16 °FPassing clouds.17 mph48%30.09 "Hg15 mi
9:00 PM16 °FPassing clouds.14 mph53%30.12 "Hg15 mi
8:00 PM16 °FPassing clouds.10 mph57%30.14 "Hg15 mi
7:00 PM18 °FMostly cloudy.13 mph58%30.14 "Hg15 mi
6:00 PM18 °FOvercast.12 mph58%30.15 "Hg15 mi
5:00 PM21 °FMostly cloudy.17 mph68%30.14 "Hg15 mi
4:00 PM23 °FMostly cloudy.15 mph68%30.15 "Hg15 mi
3:00 PM25 °FLight snow. More clouds than sun.12 mph63%30.14 "Hg15 mi
2:00 PM25 °FLight snow. Overcast.15 mph59%30.12 "Hg15 mi
1:00 PM25 °FOvercast.12 mph63%30.15 "Hg15 mi
12:00 PM23 °FOvercast.9 mph63%30.16 "Hg15 mi
11:00 AM21 °FLight snow. More clouds than sun.13 mph68%30.16 "Hg15 mi
10:00 AM21 °FLight snow. Overcast.16 mph68%30.16 "Hg15 mi
Weather by CustomWeather, © 2016

See weather overviewHow to use our weather pages